GW0507 Weather Reports


time (UTC)temp
C
wind
direction
speed
KPH
gust
KPH
rain 1hr
cm
rain 24hr
cm
rain mn
cm
humidity
%
barometer
mb
20260508043049 5 252 0.0 3.2 0.00 1.96 0.00 96 1001.7
20260508041539 6 252 1.6 11.3 0.00 1.96 0.00 96 1001.7
20260508040037 6 245 4.8 11.3 0.00 1.96 0.00 96 1001.7
20260508034547 6 237 6.4 11.3 0.00 1.96 0.00 96 1001.8
20260508033041 6 296 3.2 11.3 0.00 1.96 0.00 96 1001.8
20260508031541 6 248 4.8 9.7 0.00 1.96 0.00 96 1002.0
20260508030038 7 221 1.6 8.0 0.00 1.96 0.00 96 1002.0
20260508024535 7 5 6.4 11.3 0.00 1.96 1.96 97 1002.2
20260508023035 7 68 3.2 16.1 0.00 1.96 1.96 96 1001.9
20260508021538 7 75 4.8 9.7 0.00 1.96 1.96 96 1002.1
20260508020042 8 223 1.6 6.4 0.00 1.96 1.96 96 1002.0
20260508014534 10 302 8.0 16.1 0.00 1.96 1.96 97 1001.6
20260508013033 9 312 8.0 16.1 0.00 1.96 1.96 97 1001.5
20260508011535 8 170 3.2 16.1 0.00 1.96 1.96 97 1001.2
20260508010035 7 33 4.8 6.4 0.00 1.96 1.96 96 1001.4
20260508004538 7 15 4.8 8.0 0.00 1.96 1.96 97 1001.4
20260508003033 7 338 3.2 6.4 0.00 1.96 1.96 97 1001.6
20260508001533 7 100 11.3 16.1 0.00 1.96 1.96 96 1001.5
20260508000040 7 313 1.6 12.9 0.00 1.96 1.96 96 1001.7
20260507234539 8 156 14.5 19.3 0.00 1.96 1.96 97 1001.4
20260507233034 8 66 3.2 6.4 0.00 1.96 1.96 96 1001.4
20260507231540 8 24 3.2 6.4 0.00 1.96 1.96 96 1001.5
20260507230033 7 53 4.8 8.0 0.00 1.96 1.96 96 1001.7
20260507224535 7 90 4.8 12.9 0.00 1.96 1.96 96 1001.4
20260507223035 8 133 1.6 8.0 0.00 1.96 1.96 96 1001.3
20260507221534 7 44 3.2 8.0 0.00 1.96 1.96 97 1001.7
20260507220041 6 120 16.1 24.1 0.00 1.96 1.96 95 1001.8
20260507214541 7 106 4.8 14.5 0.03 1.96 1.96 95 1002.0
20260507213045 7 119 19.3 24.1 0.10 1.96 1.96 95 1001.7
20260507211536 8 200 11.3 22.5 0.33 1.96 1.96 95 1002.5
20260507210045 9 189 11.3 24.1 0.43 1.96 1.96 96 1001.8
20260507204545 9 151 12.9 20.9 0.58 1.93 1.93 96 1001.7
20260507203044 9 146 12.9 22.5 0.64 1.83 1.83 97 1002.6
20260507201541 8 154 17.7 24.1 0.61 1.63 1.63 97 1002.7
20260507200038 8 136 16.1 20.9 0.64 1.50 1.50 95 1003.0
20260507194536 11 153 9.7 25.7 0.66 1.32 1.32 93 1003.6
20260507193034 11 229 12.9 24.1 0.84 1.17 1.17 97 1003.9
20260507191534 9 192 6.4 30.6 0.79 0.99 0.99 95 1003.9
20260507190036 8 157 8.0 17.7 0.66 0.84 0.84 95 1004.0
20260507184533 9 151 9.7 20.9 0.46 0.64 0.64 94 1004.3
20260507183042 11 215 11.3 30.6 0.18 0.33 0.33 94 1004.4
20260507181535 11 139 16.1 30.6 0.03 0.18 0.18 94 1004.5
20260507180035 8 235 8.0 19.3 0.00 0.18 0.18 92 1004.4
20260507174535 10 198 14.5 33.8 0.00 0.15 0.15 92 1004.3
20260507173042 11 244 17.7 32.2 0.00 0.15 0.15 93 1004.3
20260507171550 11 175 17.7 45.1 0.00 0.15 0.15 91 1004.9
20260507170034 11 182 20.9 41.8 0.00 0.15 0.15 91 1004.8
20260507164535 11 169 22.5 51.5 0.00 0.15 0.15 91 1005.0
20260507163034 11 167 17.7 41.8 0.00 0.15 0.15 90 1005.5
20260507161533 12 143 22.5 53.1 0.00 0.15 0.15 90 1005.8
20260507160034 12 143 20.9 54.7 0.00 0.15 0.15 91 1006.1
20260507154536 13 142 27.4 56.3 0.00 0.15 0.15 89 1006.5
20260507153030 12 221 22.5 45.1 0.00 0.15 0.15 89 1006.6
20260507151537 12 207 25.7 46.7 0.00 0.15 0.15 90 1006.9
20260507150034 12 229 19.3 53.1 0.00 0.15 0.15 90 1006.9
20260507144547 12 172 24.1 49.9 0.00 0.15 0.15 89 1007.5
20260507143034 12 59 22.5 46.7 0.00 0.15 0.15 91 1007.8
20260507141535 13 224 32.2 62.8 0.00 0.15 0.15 89 1007.9
20260507140036 13 169 27.4 61.2 0.00 0.15 0.15 88 1008.1
20260507134535 13 153 27.4 56.3 0.00 0.15 0.15 88 1008.0
20260507133042 12 348 20.9 51.5 0.00 0.15 0.15 89 1008.1
20260507131541 12 113 19.3 38.6 0.00 0.15 0.15 90 1008.6
20260507130039 11 221 17.7 38.6 0.03 0.15 0.15 92 1008.5
20260507124537 11 182 16.1 49.9 0.08 0.15 0.15 92 1008.9
20260507123036 11 62 17.7 40.2 0.13 0.15 0.15 93 1009.1
20260507121535 11 180 17.7 61.2 0.15 0.15 0.15 93 1009.3
20260507120034 11 226 25.7 43.5 0.10 0.10 0.10 93 1009.7
20260507114535 11 226 25.7 53.1 0.05 0.05 0.05 94 1010.0
20260507113041 11 136 19.3 49.9 0.00 0.00 0.00 93 1010.2
20260507111544 10 175 19.3 38.6 0.00 0.00 0.00 93 1010.4
20260507110037 10 158 17.7 40.2 0.00 0.00 0.00 94 1010.3
20260507104535 10 161 24.1 40.2 0.00 0.00 0.00 96 1010.3
20260507103037 9 176 22.5 32.2 0.00 0.00 0.00 97 1010.8
20260507101544 9 152 14.5 29.0 0.00 0.00 0.00 96 1010.9
20260507100044 9 107 16.1 27.4 0.00 0.00 0.00 97 1011.1
20260507094546 8 124 12.9 27.4 0.00 0.00 0.00 97 1011.5
20260507093042 8 159 12.9 24.1 0.00 0.00 0.00 98 1012.1
20260507091536 5 66 12.9 16.1 0.00 0.00 0.00 96 1011.8
20260507090037 5 66 11.3 19.3 0.00 0.00 0.00 96 1012.2
20260507084537 5 85 17.7 25.7 0.00 0.00 0.00 96 1012.2
20260507083042 5 77 14.5 19.3 0.00 0.00 0.00 96 1011.8
20260507081539 5 88 14.5 17.7 0.00 0.00 0.00 96 1012.2
20260507080040 7 94 17.7 24.1 0.00 0.00 0.00 96 1012.4
20260507074536 8 126 17.7 27.4 0.00 0.00 0.00 98 1012.6
20260507073034 5 90 20.9 29.0 0.00 0.00 0.00 95 1012.8
20260507071542 6 123 24.1 35.4 0.00 0.00 0.00 96 1013.1
20260507070034 5 117 29.0 37.0 0.00 0.00 0.00 95 1012.9
20260507064540 5 117 22.5 32.2 0.00 0.00 0.00 94 1013.1
20260507063045 5 111 25.7 30.6 0.00 0.00 0.00 93 1013.1
20260507061535 6 117 22.5 25.7 0.00 0.00 0.00 90 1013.4
20260507060052 6 113 16.1 27.4 0.00 0.00 0.00 89 1013.6
20260507054547 8 60 3.2 17.7 0.00 0.00 0.00 82 1013.6
20260507053042 8 11 3.2 25.7 0.00 0.00 0.00 77 1013.9
20260507051541 13 205 11.3 27.4 0.00 0.00 0.00 80 1014.0
20260507050038 12 225 11.3 22.5 0.00 0.00 0.00 81 1014.4
20260507044548 12 159 9.7 33.8 0.00 0.00 0.00 77 1014.5